Flag for United Kingdom Weather past 2 weeks in Bolton, England, United Kingdom

Now
63 °F

Passing clouds.


Feels Like: 63 °F
Forecast: 48 / 58 °F
Wind: 6 mph from Northwest

Location: Manchester Airport

Current Time: Aug 30, 2015 at 8:07:24 PM

Latest Report: Aug 30, 2015 at 7:20 PM


Visibility: N/A

Pressure: 30.07 "Hg

Humidity: 73%

Dew point: 54 °F

Location of BoltonLocation

Historic Weather in Bolton — Graph

°F

Bolton temperature yesterday

Maximum temperature yesterday: 68 °F (at 3:20 PM)
Minimum temperature yesterday: 54 °F (at 5:50 AM)
Average temperature yesterday: 60 °F

Past Weeks' High & Low Weather Summary

 TemperatureHumidityPressure
High77 °F (Aug 23, 1:20 PM)100% (Aug 18, 4:50 AM)30.12 "Hg (Aug 18, 4:50 AM)
Low45 °F (Aug 16, 3:50 AM)43% (Aug 27, 4:50 PM)29.45 "Hg (Aug 23, 1:50 PM)
Average60 °F78%29.86 "Hg
* Reported Aug 15 6:20 PM — Aug 30 6:50 PM, Bolton, Weather by CustomWeather, © 2015

Note: Actual official high and low records may vary slightly from our data, if they occured in-between our weather recording intervals... More about our weather records

Advertising

Bolton weather history for previous 24 hours

 ConditionsComfort  
Time TempWeatherWind HumidityBarometerVisibility
6:50 PM
Sun, Aug 30
63 °FPassing clouds.3 mph64%30.09 "HgN/A
6:20 PM64 °FPassing clouds.3 mph56%30.07 "HgN/A
5:50 PM64 °FPassing clouds.5 mph60%30.09 "HgN/A
5:20 PM64 °FPassing clouds.5 mph60%30.09 "HgN/A
4:50 PM64 °FPassing clouds.2 mph60%30.07 "HgN/A
4:20 PM64 °FPassing clouds.3 mph60%30.09 "HgN/A
3:50 PM64 °FPassing clouds.3 mph60%30.09 "HgN/A
3:20 PM64 °FPassing clouds.5 mph64%30.09 "HgN/A
2:50 PM64 °FPassing clouds.2 mph60%30.09 "HgN/A
2:20 PM64 °FPassing clouds.5 mph64%30.09 "HgN/A
1:50 PM64 °FMild.5 mph64%30.09 "HgN/A
1:20 PM64 °FPassing clouds.3 mph60%30.09 "HgN/A
12:50 PM64 °FPassing clouds.3 mph60%30.09 "HgN/A
12:20 PM64 °FPassing clouds.3 mph64%30.09 "HgN/A
11:50 AM64 °FPassing clouds.2 mph60%30.09 "HgN/A
11:20 AM64 °FPassing clouds.2 mph60%30.09 "HgN/A
10:50 AM63 °FSunny.3 mph68%30.09 "Hg10 mi
10:20 AM63 °FSunny.2 mph68%30.09 "Hg10 mi
9:50 AM61 °FSunny.2 mph77%30.09 "Hg10 mi
9:20 AM59 °FSunny.2 mph82%30.09 "Hg10 mi
8:50 AM57 °FSunny.2 mph88%30.09 "Hg10 mi
8:20 AM55 °FSunny.No wind88%30.09 "Hg10 mi
7:50 AM52 °FSunny.No wind94%30.09 "Hg10 mi
7:20 AM52 °FSunny.No wind94%30.09 "Hg10 mi
6:50 AM50 °FClear.3 mph100%30.09 "Hg10 mi
6:20 AM50 °FClear.3 mph100%30.09 "Hg10 mi
5:50 AM50 °FClear.2 mph100%30.09 "Hg10 mi
5:20 AM52 °FClear.2 mph94%30.09 "Hg10 mi
4:50 AM52 °FClear.3 mph94%30.09 "Hg10 mi
4:20 AM52 °FClear.3 mph94%30.09 "Hg10 mi
3:50 AM52 °FClear.5 mph94%30.09 "Hg10 mi
3:20 AM54 °FClear.2 mph94%30.09 "Hg10 mi
2:50 AM54 °FClear.2 mph94%30.09 "Hg10 mi
2:20 AM54 °FClear.3 mph94%30.09 "Hg10 mi
1:50 AM54 °FClear.6 mph94%30.09 "Hg10 mi
1:20 AM54 °FClear.6 mph94%30.09 "Hg10 mi
12:50 AM54 °FClear.6 mph94%30.09 "Hg10 mi
12:20 AM54 °FClear.5 mph94%30.09 "Hg10 mi
11:50 PM
Sat, Aug 29
54 °FClear.No wind94%30.09 "Hg10 mi
11:20 PM55 °FClear.2 mph88%30.09 "Hg10 mi
10:50 PM57 °FClear.2 mph82%30.09 "Hg10 mi
10:20 PM57 °FClear.2 mph82%30.09 "Hg10 mi
9:50 PM57 °FPassing clouds.3 mph82%30.09 "HgN/A
9:20 PM57 °FPassing clouds.3 mph82%30.09 "HgN/A
8:50 PM61 °FPassing clouds.3 mph68%30.07 "HgN/A
8:20 PM59 °FPassing clouds.3 mph72%30.07 "HgN/A
Weather by CustomWeather, © 2015

See weather overviewHow to use our weather pages